Year,Month,Day,Hour,Minute,Value (Times are PST for temperature in C)
2010,09,24,11,19,12.30
2010,09,24,11,20,12.30
2010,09,24,11,21,12.30
2010,09,24,11,22,12.30
2010,09,24,11,23,12.30
2010,09,24,11,24,12.30
2010,09,24,11,25,12.30
2010,09,24,11,26,12.30
2010,09,24,11,27,12.30
2010,09,24,11,28,12.30
2010,09,24,11,29,12.30
2010,09,24,11,30,12.30
2010,09,24,11,31,12.30
2010,09,24,11,32,12.30
2010,09,24,11,33,12.30
2010,09,24,14,22,11.70
2010,09,24,14,23,11.70
2010,09,24,14,24,11.60
2010,09,24,14,25,11.60
2010,09,24,14,26,11.60
2010,09,24,14,27,11.60
2010,09,24,14,28,11.60
2010,09,24,14,29,11.60
2010,09,24,14,30,11.60
2010,09,24,14,31,11.70
2010,09,24,14,32,11.70
2010,09,24,14,33,11.70
2010,09,24,14,34,11.70
2010,09,24,14,35,11.70
2010,09,24,14,36,11.70
2010,09,24,14,37,11.70
2010,09,24,14,38,11.70
2010,09,24,14,39,11.80
2010,09,24,14,40,11.70
2010,09,24,14,41,11.70
2010,09,24,14,42,11.70
2010,09,24,14,43,11.70
2010,09,24,14,44,11.70
2010,09,24,14,45,11.70
2010,09,24,14,46,11.70
2010,09,24,14,47,11.70
2010,09,24,14,48,11.70
2010,09,24,14,49,11.80
2010,09,24,14,50,11.80
2010,09,24,14,51,11.80
2010,09,24,14,52,11.80
2010,09,24,14,53,11.80
2010,09,24,14,54,11.80
2010,09,24,14,55,11.80
2010,09,24,14,56,11.80
2010,09,24,14,57,11.80
2010,09,24,14,58,11.80
2010,09,24,14,59,11.90
2010,09,24,15,00,11.90
2010,09,24,15,01,11.90
2010,09,24,15,02,11.90
2010,09,24,15,03,11.90
2010,09,24,15,04,11.90
2010,09,24,15,05,11.90
2010,09,24,15,06,11.90
2010,09,24,15,07,11.90
2010,09,24,15,08,11.90
2010,09,24,15,09,11.90
2010,09,24,15,10,11.90
2010,09,24,15,11,11.90
2010,09,24,17,26,13.90
2010,09,24,17,27,13.90
2010,09,24,17,28,13.90
2010,09,24,17,29,13.90
2010,09,24,17,30,13.90
2010,09,24,17,31,13.90
2010,09,24,17,32,13.90
2010,09,24,17,33,13.90
2010,09,24,17,34,13.90
2010,09,24,17,35,13.90
2010,09,24,17,36,13.90
2010,09,24,17,37,13.90
2010,09,24,17,38,13.90
2010,09,24,17,39,13.90
2010,09,24,17,40,13.90
2010,09,24,17,41,13.90
2010,09,24,17,42,13.90
2010,09,24,17,43,13.90
2010,09,24,17,44,13.90
2010,09,24,17,45,13.90
2010,09,24,17,46,13.90
2010,09,24,17,47,13.90
2010,09,24,17,48,14.00
2010,09,24,17,49,13.90
2010,09,24,17,50,13.90
2010,09,24,17,51,13.90
2010,09,24,17,52,14.00
2010,09,24,17,53,14.00
2010,09,24,17,54,14.00
2010,09,24,17,55,14.00
2010,09,24,17,56,14.00
2010,09,24,17,57,14.00
2010,09,24,17,58,13.90
2010,09,24,17,59,13.90
2010,09,24,18,00,13.90
2010,09,24,18,01,13.90
2010,09,24,18,02,13.90
2010,09,24,18,03,13.90
2010,09,24,18,04,13.90
2010,09,24,18,05,13.90
2010,09,24,18,06,13.90
2010,09,24,18,07,13.80
2010,09,24,18,08,13.80
2010,09,24,18,09,13.80
2010,09,24,18,10,13.80
2010,09,24,18,11,13.80
2010,09,24,18,12,13.80
2010,09,24,18,13,13.80
2010,09,24,18,14,13.80
2010,09,24,18,15,13.80
2010,09,24,18,16,13.80
2010,09,24,18,17,13.80
2010,09,24,18,18,13.80
2010,09,24,18,19,13.80
2010,09,24,18,20,13.80
2010,09,24,18,21,13.80
2010,09,24,18,22,13.80
2010,09,24,18,23,13.80
2010,09,24,18,24,13.80
2010,09,24,18,25,13.80
2010,09,24,18,26,13.80
2010,09,24,18,27,13.80
2010,09,24,18,28,13.80
2010,09,24,18,29,13.80
2010,09,24,18,30,13.80
2010,09,24,18,31,13.80
2010,09,24,18,32,13.80
2010,09,24,18,33,13.80
2010,09,24,18,34,13.80
2010,09,24,18,35,13.80
2010,09,24,18,36,13.80
2010,09,24,18,37,13.80
2010,09,24,18,38,13.80
2010,09,24,18,39,13.80
2010,09,24,18,40,13.80
2010,09,24,18,41,13.80
2010,09,24,18,42,13.80
2010,09,24,18,43,13.80
2010,09,24,18,44,13.80
2010,09,24,18,45,13.80
2010,09,24,18,46,13.80
2010,09,24,18,47,13.80
2010,09,24,18,48,13.80
2010,09,24,18,49,13.80
2010,09,24,18,50,13.80
2010,09,24,18,51,13.80
